OBJECT D, 62728

Orbit data source: Space-Track

You're viewing an Uncataloged Satellite

Recently launched and/or uncataloged satellites may have evolving metadata. Metadata may include but not limited to: Owner, Maufacturer, Bus, Motor, and Mission.

OBJECT D, 62728 is a satellite owned by CASC (CN) in SSO that was launched on Fri, 17 Jan 2025 UTC launched from the Jiuquan Satellite Launch Center, China (JSC). Unknown objects in Earth's orbit typically refer to objects detected orbiting the Earth but have not yet been identified or cataloged. These objects could be anything from previously untracked satellites, spent rocket stages, debris from satellite collisions, or even natural meteoroids temporarily captured by Earth's gravity.

Loading next visibility...
OBJECT D details
Identifier
62728, 2025-012D
Orbit
SSO
Last TLE update9 hours ago
Origin
Flag of CNCASC (CN / PRC)
ManufacturerBWYIC
MissionSpacecraft
Bus & MotorCZ-2 STAGE 2, Unknown motor
Mass4,006 kg wet, 4,006 kg dry
Launch date (UTC)
2025-01-17 (3 weeks ago)
Launch vehicleUnknown
Launch site
Jiuquan Satellite Launch Center, China (JSC)
Object typeUnknown
Shape & HBRUnknown
Radar Cross SectionLarge (>1 m²)

Expand to show TLE details & history

TLE from 9 hours ago
0 OBJECT D
1 62728U 25012D   25035.78095908  .00030764  00000-0  16375-2 0  9990
2 62728  97.4770 111.4237 0008989 194.9647 165.1321 15.15141036  2787
Epoch: 2025-02-04T18:44Z
Definitive object data (Epoch: 2025-02-04T18:44:34.864Z)
Latitude0.00001°
Longitude55.0971°
Altitude529.627 km
Speed7.595 km/s
True Right ascension07h 25m 41s
True Declination0° 00' 00"
Sunlit
Object was in full shadow at TLE epoch
Visualization TLE readout
Latitude-37.92443°
Longitude61.31704°
Altitude538.829 km
Speed7.59 km/s
Apparent Right ascension12h 05m 30s
Apparent Declination-73° 56' 56"
Sunlit
Object is in full shadow
Visualization observer readout
Local Sidereal Time06:06:52
Azimuth159.465° S
Elevation-37.98°
Doppler factor1
Orbital elements
Apogee altitude523.724 km
Perigee altitude511.327 km
Semi-major axis6,895.663 km
Eccentricity0.0008989
Inclination97.477°
RAAN111.4237°
Arg. of periapsis194.9647°
True anomaly165.1585°
Mean anomaly165.1321°
Eccentric anomaly165.1453°
Mean motion3.79035 °/min
BSTAR0.0016375
Orbital period94.98 mins
Loading maneuver chart data...
Loading historical data...
Loading historical data...
Loading historical data...
Loading historical data...
Loading historical data...
Loading historical data...
Loading historical data...
Other satellites on launch #12 in the year 2025 (2025-01-17 UTC)

OBJECT D Visibility forecast

Observer location: undefined°, undefined

Span
Click to sort rows by Start time (UTC) header in descending order
Start Az.
Max El. time (UTC)
Max El. Az.
Max El.
End time (UTC)
End Az.
6 mins2025-02-05 04:23:05.361Z134.321° SE2025-02-05 04:26:05.361Z78.408° E27.99°2025-02-05 04:29:05.361Z12.645° NNE
5 mins2025-02-05 17:31:05.361Z33.535° NE2025-02-05 17:33:05.361Z103.358° ESE38.062°2025-02-05 17:36:05.361Z174.538° S
|